DLH3MW EDDF-LDZA

Flight info

Callsign DLH3MW
Flight time 1h 11m
Altitude 35000
Route CINDY2D CINDY Z74 LAMPU DCT NOMBO Y161 MAH DCT LATLO DCT OBEDI DCT KLAGY DCT LULUD
Aircraft A320/M-SDE2E3FGIJ1LORWXYZ/HB1

Departure

Time 2026-05-05 05:26
Airport Frankfurt Main Airport (EDDF)

Arrival

Time 2026-05-05 06:38
Airport Zagreb Franjo Tuđman International Airport (LDZA)
Time Latitude Longitude Altitude Speed Heading
2026-05-05 04:50 50.04675 8.56059 363 ft 0 kts 320°
2026-05-05 05:15 50.04672 8.56064 365 ft 3 kts 320°
2026-05-05 05:15 50.04654 8.56086 358 ft 3 kts 320°
2026-05-05 05:15 50.04637 8.56109 362 ft 3 kts 319°
2026-05-05 05:15 50.04620 8.56132 360 ft 3 kts 312°
2026-05-05 05:16 50.04608 8.56159 356 ft 3 kts 286°
2026-05-05 05:16 50.04606 8.56180 358 ft 0 kts 250°
2026-05-05 05:16 50.04598 8.56148 358 ft 3 kts 250°
2026-05-05 05:16 50.04590 8.56115 356 ft 3 kts 249°
2026-05-05 05:17 50.04582 8.56082 359 ft 3 kts 249°
2026-05-05 05:17 50.04574 8.56050 357 ft 2 kts 249°
2026-05-05 05:17 50.04574 8.56047 360 ft 0 kts 249°
2026-05-05 05:20 50.04563 8.56003 357 ft 8 kts 248°
2026-05-05 05:20 50.04522 8.55955 361 ft 8 kts 198°
2026-05-05 05:20 50.04462 8.55925 357 ft 9 kts 197°
2026-05-05 05:20 50.04398 8.55907 356 ft 10 kts 181°
2026-05-05 05:21 50.04328 8.55938 362 ft 11 kts 159°
2026-05-05 05:21 50.04250 8.55942 358 ft 12 kts 214°
2026-05-05 05:21 50.04208 8.55811 355 ft 16 kts 248°
2026-05-05 05:21 50.04166 8.55633 358 ft 19 kts 250°
2026-05-05 05:22 50.04116 8.55427 355 ft 21 kts 250°
2026-05-05 05:22 50.04064 8.55207 358 ft 22 kts 249°
2026-05-05 05:22 50.04008 8.54972 360 ft 24 kts 250°
2026-05-05 05:22 50.03950 8.54731 357 ft 22 kts 249°
2026-05-05 05:23 50.03893 8.54493 355 ft 24 kts 249°
2026-05-05 05:23 50.03825 8.54290 350 ft 21 kts 235°
2026-05-05 05:23 50.03763 8.54070 351 ft 23 kts 249°
2026-05-05 05:23 50.03705 8.53833 348 ft 22 kts 249°
2026-05-05 05:24 50.03660 8.53640 348 ft 19 kts 248°
2026-05-05 05:24 50.03558 8.53514 337 ft 18 kts 205°
2026-05-05 05:24 50.03474 8.53453 337 ft 12 kts 205°
2026-05-05 05:24 50.03388 8.53464 337 ft 13 kts 143°
2026-05-05 05:25 50.03338 8.53560 338 ft 8 kts 127°
2026-05-05 05:25 50.03308 8.53616 337 ft 6 kts 127°
2026-05-05 05:25 50.03310 8.53662 339 ft 3 kts 68°
2026-05-05 05:25 50.03311 8.53667 339 ft 0 kts 68°
2026-05-05 05:26 50.03391 8.54002 338 ft 72 kts 69°
2026-05-05 05:26 50.03645 8.55063 348 ft 135 kts 70°
2026-05-05 05:26 50.04036 8.56668 486 ft 172 kts 69°
2026-05-05 05:26 50.04459 8.58407 1180 ft 172 kts 69°
2026-05-05 05:27 50.04860 8.60183 1868 ft 180 kts 71°
2026-05-05 05:27 50.05272 8.62157 2257 ft 203 kts 72°
2026-05-05 05:27 50.06210 8.66694 3377 ft 230 kts 72°
2026-05-05 05:28 50.06706 8.69071 4196 ft 235 kts 73°
2026-05-05 05:28 50.07175 8.71535 5023 ft 240 kts 84°
2026-05-05 05:28 50.06917 8.74048 5781 ft 238 kts 123°
2026-05-05 05:28 50.05731 8.75737 6603 ft 233 kts 160°
2026-05-05 05:29 50.04147 8.76029 7416 ft 232 kts 189°
2026-05-05 05:29 50.02544 8.75622 8269 ft 235 kts 191°
2026-05-05 05:29 50.00924 8.75186 9124 ft 238 kts 192°
2026-05-05 05:29 49.99238 8.74632 9630 ft 259 kts 194°
2026-05-05 05:30 49.97420 8.73957 10091 ft 278 kts 194°
2026-05-05 05:30 49.95461 8.73211 10387 ft 302 kts 194°
2026-05-05 05:30 49.93369 8.72420 10924 ft 315 kts 194°
2026-05-05 05:30 49.91225 8.71624 11682 ft 320 kts 194°
2026-05-05 05:31 49.89040 8.70827 12461 ft 325 kts 193°
2026-05-05 05:31 49.86772 8.70648 13205 ft 333 kts 172°
2026-05-05 05:31 49.84624 8.72026 13924 ft 342 kts 146°
2026-05-05 05:31 49.83055 8.74832 14609 ft 353 kts 119°
2026-05-05 05:32 49.82193 8.78419 15306 ft 358 kts 110°
2026-05-05 05:32 49.81458 8.82124 16002 ft 362 kts 109°
2026-05-05 05:32 49.80748 8.85884 16682 ft 365 kts 109°
2026-05-05 05:32 49.80038 8.89677 17354 ft 369 kts 109°
2026-05-05 05:33 49.79312 8.93504 18020 ft 373 kts 109°
2026-05-05 05:33 49.78577 8.97312 18608 ft 376 kts 110°
2026-05-05 05:33 49.77799 9.01246 19174 ft 380 kts 110°
2026-05-05 05:33 49.77012 9.05175 19743 ft 383 kts 110°
2026-05-05 05:34 49.76218 9.09132 20277 ft 388 kts 110°
2026-05-05 05:34 49.75473 9.13173 20827 ft 393 kts 109°
2026-05-05 05:34 49.74591 9.17170 21386 ft 393 kts 117°
2026-05-05 05:34 49.73316 9.20900 21952 ft 393 kts 127°
2026-05-05 05:35 49.71662 9.24182 22521 ft 393 kts 134°
2026-05-05 05:35 49.69857 9.27383 23078 ft 396 kts 135°
2026-05-05 05:35 49.68025 9.30591 23609 ft 400 kts 135°
2026-05-05 05:35 49.66174 9.33817 24064 ft 403 kts 135°
2026-05-05 05:36 49.64309 9.37067 24527 ft 406 kts 135°
2026-05-05 05:36 49.62379 9.40246 24971 ft 406 kts 141°
2026-05-05 05:36 49.60170 9.42933 25415 ft 403 kts 151°
2026-05-05 05:36 49.57772 9.45164 25856 ft 404 kts 153°
2026-05-05 05:37 49.55350 9.47374 26326 ft 405 kts 153°
2026-05-05 05:37 49.52923 9.49589 26761 ft 407 kts 153°
2026-05-05 05:37 49.50486 9.51816 27177 ft 409 kts 153°
2026-05-05 05:37 49.48033 9.54057 27585 ft 411 kts 153°
2026-05-05 05:38 49.45562 9.56312 27993 ft 414 kts 153°
2026-05-05 05:38 49.43080 9.58569 28390 ft 416 kts 154°
2026-05-05 05:38 49.40583 9.60830 28775 ft 418 kts 154°
2026-05-05 05:38 49.38068 9.63109 29150 ft 421 kts 154°
2026-05-05 05:39 49.35549 9.65410 29519 ft 424 kts 152°
2026-05-05 05:39 49.33949 9.67139 29745 ft 429 kts 145°
2026-05-05 05:39 49.31739 9.70256 30122 ft 433 kts 139°
2026-05-05 05:39 49.29628 9.73503 30448 ft 435 kts 139°
2026-05-05 05:40 49.27482 9.76785 30754 ft 436 kts 139°
2026-05-05 05:40 49.25330 9.80064 31055 ft 438 kts 140°
2026-05-05 05:40 49.23161 9.83360 31278 ft 441 kts 140°
2026-05-05 05:40 49.20985 9.86669 31542 ft 443 kts 140°
2026-05-05 05:41 49.18808 9.89972 31931 ft 441 kts 140°
2026-05-05 05:41 49.16628 9.93277 32335 ft 440 kts 140°
2026-05-05 05:41 49.14460 9.96561 32734 ft 438 kts 140°
2026-05-05 05:41 49.12298 9.99836 33134 ft 437 kts 140°
2026-05-05 05:42 49.10145 10.03096 33537 ft 436 kts 140°
2026-05-05 05:42 49.07996 10.06342 33931 ft 434 kts 140°
2026-05-05 05:42 49.05850 10.09574 34288 ft 432 kts 141°
2026-05-05 05:42 49.03688 10.12734 34606 ft 431 kts 142°
2026-05-05 05:43 49.01496 10.15840 34841 ft 431 kts 142°
2026-05-05 05:43 48.99282 10.18927 34892 ft 431 kts 142°
2026-05-05 05:43 48.94858 10.25070 34912 ft 431 kts 142°
2026-05-05 05:44 48.90453 10.31255 34912 ft 431 kts 142°
2026-05-05 05:44 48.86057 10.37465 34910 ft 431 kts 142°
2026-05-05 05:45 48.81684 10.43697 34913 ft 432 kts 140°
2026-05-05 05:45 48.77510 10.50286 34908 ft 434 kts 137°
2026-05-05 05:46 48.73421 10.57034 34910 ft 435 kts 137°
2026-05-05 05:46 48.69297 10.63730 34909 ft 435 kts 137°
2026-05-05 05:47 48.65126 10.70357 34903 ft 434 kts 138°
2026-05-05 05:47 48.60975 10.76913 34904 ft 434 kts 138°
2026-05-05 05:48 48.56796 10.83506 34896 ft 434 kts 138°
2026-05-05 05:48 48.52650 10.90130 34892 ft 435 kts 137°
2026-05-05 05:49 48.48491 10.96791 34919 ft 436 kts 137°
2026-05-05 05:49 48.44297 11.03394 34920 ft 436 kts 138°
2026-05-05 05:50 48.40078 11.09936 34917 ft 436 kts 138°
2026-05-05 05:50 48.35851 11.16475 34910 ft 436 kts 138°
2026-05-05 05:51 48.31631 11.23018 34883 ft 436 kts 137°
2026-05-05 05:51 48.27422 11.29582 34906 ft 438 kts 134°
2026-05-05 05:52 48.24053 11.37268 34909 ft 444 kts 123°
2026-05-05 05:52 48.21011 11.45325 34910 ft 444 kts 123°
2026-05-05 05:53 48.17952 11.53361 34906 ft 444 kts 123°
2026-05-05 05:53 48.14888 11.61388 34893 ft 444 kts 123°
2026-05-05 05:54 48.11815 11.69431 34899 ft 445 kts 123°
2026-05-05 05:54 48.08741 11.77473 34883 ft 445 kts 123°
2026-05-05 05:55 48.05734 11.85330 34877 ft 445 kts 123°
2026-05-05 05:55 48.02584 11.93507 34879 ft 445 kts 123°
2026-05-05 05:56 47.99487 12.01504 34874 ft 445 kts 123°
2026-05-05 05:56 47.96379 12.09508 34878 ft 445 kts 123°
2026-05-05 05:57 47.93267 12.17497 34874 ft 446 kts 123°
2026-05-05 05:57 47.90156 12.25481 34875 ft 445 kts 123°
2026-05-05 05:58 47.87059 12.33405 34872 ft 445 kts 123°
2026-05-05 05:58 47.83936 12.41371 34872 ft 445 kts 123°
2026-05-05 05:59 47.80804 12.49329 34873 ft 445 kts 123°
2026-05-05 05:59 47.77671 12.57276 34878 ft 445 kts 123°
2026-05-05 06:00 47.74533 12.65209 34882 ft 445 kts 123°
2026-05-05 06:00 47.71384 12.73132 34878 ft 446 kts 123°
2026-05-05 06:01 47.68066 12.80889 34886 ft 443 kts 132°
2026-05-05 06:01 47.63811 12.87436 34887 ft 441 kts 138°
2026-05-05 06:02 47.59469 12.93847 34886 ft 441 kts 138°
2026-05-05 06:02 47.55125 13.00264 34890 ft 441 kts 138°
2026-05-05 06:03 47.50781 13.06663 34884 ft 442 kts 138°
2026-05-05 06:03 47.46413 13.13076 34903 ft 443 kts 138°
2026-05-05 06:04 47.42045 13.19474 34904 ft 442 kts 138°
2026-05-05 06:04 47.37674 13.25862 34913 ft 442 kts 138°
2026-05-05 06:05 47.33298 13.32237 34926 ft 443 kts 136°
2026-05-05 06:05 47.29342 13.39233 34927 ft 446 kts 131°
2026-05-05 06:06 47.25448 13.46342 34944 ft 446 kts 131°
2026-05-05 06:06 47.21539 13.53437 34953 ft 446 kts 131°
2026-05-05 06:07 47.17622 13.60508 34953 ft 447 kts 132°
2026-05-05 06:07 47.13695 13.67595 34966 ft 447 kts 132°
2026-05-05 06:08 47.09761 13.74663 34965 ft 447 kts 131°
2026-05-05 06:08 47.05826 13.81718 34970 ft 447 kts 132°
2026-05-05 06:09 47.01887 13.88767 34975 ft 447 kts 132°
2026-05-05 06:09 46.97941 13.95817 34974 ft 447 kts 132°
2026-05-05 06:10 46.93996 14.02837 34977 ft 447 kts 132°
2026-05-05 06:10 46.90034 14.09876 34984 ft 449 kts 132°
2026-05-05 06:11 46.86053 14.16924 34989 ft 449 kts 132°
2026-05-05 06:11 46.82098 14.23915 34993 ft 449 kts 132°
2026-05-05 06:12 46.78088 14.30985 34997 ft 449 kts 132°
2026-05-05 06:12 46.74094 14.38003 34999 ft 449 kts 132°
2026-05-05 06:13 46.70099 14.45015 35002 ft 449 kts 132°
2026-05-05 06:13 46.66104 14.52004 34991 ft 450 kts 132°
2026-05-05 06:14 46.62116 14.58955 34995 ft 451 kts 132°
2026-05-05 06:14 46.58069 14.65999 34995 ft 451 kts 132°
2026-05-05 06:15 46.54050 14.72979 34991 ft 450 kts 132°
2026-05-05 06:15 46.52065 14.76410 34646 ft 450 kts 133°
2026-05-05 06:15 46.49838 14.79705 33769 ft 452 kts 139°
2026-05-05 06:16 46.47588 14.82781 33171 ft 448 kts 139°
2026-05-05 06:16 46.45338 14.85866 32660 ft 443 kts 139°
2026-05-05 06:16 46.43112 14.88924 32137 ft 438 kts 139°
2026-05-05 06:16 46.40911 14.91945 31634 ft 434 kts 139°
2026-05-05 06:17 46.38726 14.94939 31135 ft 430 kts 140°
2026-05-05 06:17 46.36562 14.97899 30648 ft 427 kts 140°
2026-05-05 06:17 46.34407 15.00838 30166 ft 424 kts 140°
2026-05-05 06:17 46.32237 15.03792 29641 ft 421 kts 140°
2026-05-05 06:18 46.30145 15.06637 29202 ft 416 kts 140°
2026-05-05 06:18 46.28048 15.09483 28752 ft 411 kts 140°
2026-05-05 06:18 46.25975 15.12293 28322 ft 407 kts 140°
2026-05-05 06:18 46.23920 15.15078 27880 ft 403 kts 140°
2026-05-05 06:19 46.21889 15.17834 27427 ft 400 kts 140°
2026-05-05 06:19 46.19879 15.20565 27000 ft 396 kts 139°
2026-05-05 06:19 46.17868 15.23290 26540 ft 393 kts 139°
2026-05-05 06:19 46.15877 15.25979 26086 ft 391 kts 139°
2026-05-05 06:20 46.13895 15.28652 25610 ft 389 kts 139°
2026-05-05 06:20 46.11924 15.31311 25146 ft 387 kts 139°
2026-05-05 06:20 46.09958 15.33958 24667 ft 386 kts 139°
2026-05-05 06:20 46.07998 15.36594 24173 ft 385 kts 139°
2026-05-05 06:21 46.06043 15.39220 23683 ft 384 kts 139°
2026-05-05 06:21 46.04091 15.41842 23137 ft 383 kts 139°
2026-05-05 06:21 46.02154 15.44443 22654 ft 379 kts 139°
2026-05-05 06:21 46.00231 15.47024 22183 ft 376 kts 139°
2026-05-05 06:22 45.98324 15.49578 21714 ft 373 kts 139°
2026-05-05 06:22 45.96431 15.52106 21254 ft 370 kts 139°
2026-05-05 06:22 45.94548 15.54616 20795 ft 368 kts 139°
2026-05-05 06:22 45.92678 15.57107 20338 ft 365 kts 139°
2026-05-05 06:23 45.90823 15.59577 19892 ft 363 kts 139°
2026-05-05 06:23 45.88975 15.62040 19443 ft 361 kts 139°
2026-05-05 06:23 45.87138 15.64484 19000 ft 359 kts 140°
2026-05-05 06:23 45.85312 15.66910 18559 ft 357 kts 140°
2026-05-05 06:24 45.84107 15.68512 18259 ft 356 kts 140°
2026-05-05 06:24 45.82309 15.70924 17840 ft 352 kts 139°
2026-05-05 06:24 45.80534 15.73329 17416 ft 349 kts 139°
2026-05-05 06:24 45.78776 15.75719 16936 ft 347 kts 139°
2026-05-05 06:25 45.77034 15.78085 16489 ft 345 kts 139°
2026-05-05 06:25 45.75326 15.80460 16157 ft 341 kts 134°
2026-05-05 06:25 45.74163 15.83402 15783 ft 345 kts 108°
2026-05-05 06:25 45.74063 15.86824 15376 ft 350 kts 80°
2026-05-05 06:26 45.75067 15.89977 14955 ft 352 kts 54°
2026-05-05 06:26 45.76664 15.92648 14490 ft 353 kts 49°
2026-05-05 06:26 45.78358 15.95192 14085 ft 353 kts 47°
2026-05-05 06:26 45.80080 15.97680 13660 ft 350 kts 46°
2026-05-05 06:27 45.81786 16.00144 12944 ft 346 kts 47°
2026-05-05 06:27 45.85058 16.04980 11964 ft 327 kts 48°
2026-05-05 06:27 45.86591 16.07294 11587 ft 316 kts 48°
2026-05-05 06:28 45.88076 16.09557 11221 ft 306 kts 49°
2026-05-05 06:28 45.89519 16.11767 10858 ft 303 kts 49°
2026-05-05 06:28 45.90960 16.13977 10481 ft 303 kts 48°
2026-05-05 06:28 45.92398 16.16185 10111 ft 303 kts 48°
2026-05-05 06:29 45.93838 16.18393 9824 ft 299 kts 48°
2026-05-05 06:29 45.95239 16.20541 9623 ft 291 kts 48°
2026-05-05 06:29 45.96610 16.22641 9488 ft 286 kts 48°
2026-05-05 06:29 45.97979 16.24741 9028 ft 289 kts 48°
2026-05-05 06:30 45.99345 16.26845 8466 ft 286 kts 49°
2026-05-05 06:30 46.00387 16.29236 7827 ft 281 kts 75°
2026-05-05 06:30 46.00593 16.31965 7254 ft 271 kts 102°
2026-05-05 06:30 45.99989 16.34457 6642 ft 262 kts 128°
2026-05-05 06:31 45.98788 16.36355 6059 ft 257 kts 142°
2026-05-05 06:31 45.97306 16.37711 5640 ft 248 kts 165°
2026-05-05 06:31 45.95621 16.37965 5176 ft 241 kts 193°
2026-05-05 06:31 45.94104 16.37137 4952 ft 229 kts 217°
2026-05-05 06:32 45.92965 16.35639 4833 ft 219 kts 227°
2026-05-05 06:32 45.91903 16.34089 4708 ft 217 kts 227°
2026-05-05 06:32 45.90847 16.32547 4608 ft 217 kts 226°
2026-05-05 06:32 45.89789 16.31004 4513 ft 217 kts 227°
2026-05-05 06:33 45.88825 16.29341 4265 ft 217 kts 233°
2026-05-05 06:33 45.87883 16.27694 3981 ft 216 kts 230°
2026-05-05 06:33 45.86878 16.26104 3698 ft 215 kts 228°
2026-05-05 06:33 45.85859 16.24538 3416 ft 214 kts 228°
2026-05-05 06:34 45.84846 16.22988 3134 ft 212 kts 227°
2026-05-05 06:34 45.83851 16.21465 2853 ft 204 kts 227°
2026-05-05 06:34 45.82919 16.20040 2593 ft 189 kts 227°
2026-05-05 06:34 45.82025 16.18674 2367 ft 183 kts 226°
2026-05-05 06:35 45.81168 16.17364 2107 ft 174 kts 227°
2026-05-05 06:35 45.80371 16.16148 1859 ft 159 kts 227°
2026-05-05 06:35 45.79670 16.15083 1726 ft 136 kts 226°
2026-05-05 06:35 45.79057 16.14146 1494 ft 133 kts 226°
2026-05-05 06:36 45.78410 16.13167 1328 ft 131 kts 226°
2026-05-05 06:36 45.77822 16.12267 1148 ft 131 kts 227°
2026-05-05 06:36 45.77193 16.11302 997 ft 134 kts 226°
2026-05-05 06:36 45.76543 16.10318 803 ft 141 kts 226°
2026-05-05 06:37 45.75870 16.09284 588 ft 143 kts 226°
2026-05-05 06:37 45.75199 16.08254 412 ft 140 kts 226°
2026-05-05 06:37 45.74567 16.07299 360 ft 119 kts 227°
2026-05-05 06:37 45.74119 16.06614 358 ft 70 kts 226°
2026-05-05 06:38 45.73911 16.06296 367 ft 22 kts 227°
2026-05-05 06:38 45.73819 16.06296 360 ft 16 kts 141°
2026-05-05 06:38 45.73748 16.06394 362 ft 14 kts 112°
2026-05-05 06:38 45.73799 16.06520 364 ft 18 kts 43°
2026-05-05 06:39 45.73899 16.06669 354 ft 24 kts 46°
2026-05-05 06:39 45.74004 16.06829 358 ft 22 kts 46°
2026-05-05 06:39 45.74113 16.06994 360 ft 22 kts 47°
2026-05-05 06:39 45.74189 16.07112 364 ft 15 kts 49°
2026-05-05 06:40 45.74197 16.07228 360 ft 14 kts 133°
2026-05-05 06:40 45.74127 16.07324 359 ft 17 kts 135°
2026-05-05 06:40 45.74064 16.07452 355 ft 17 kts 78°
2026-05-05 06:40 45.74132 16.07573 361 ft 14 kts 48°
2026-05-05 06:41 45.74159 16.07658 360 ft 6 kts 134°
2026-05-05 06:41 45.74140 16.07699 363 ft 2 kts 121°
2026-05-05 06:41 45.74140 16.07701 363 ft 0 kts 121°